[[{"header":{"parameterUnit":"m.s-1","parameterCategory":1,"la1":30.2991,"la2":30.254,"lo1":-89.0895,"lo2":-89.0444,"dy":0.0017,"dx":0.0017,"nx":28,"ny":28,"refTime":"2025-06-01T21:00:00:Z","depth":0,"parameterNumber":2,"parameterNumberName":"U-component_of_WINDS"},"data":[0,0,0,0,0,0,0,0,0,0,0,0,0,0,0,0,0,0,0,0,0,0,0,0,0,0,0,0,0,0,0,0,0,0,0,0,0,0,0,0,0,0,0,0,0,0,0,0,0,0,0,0,0,0,0,0,0,0,-2.0795,-2.0795,0,-2.0779,-2.0779,-2.0779,-2.0731,-2.073,-2.0729,-2.0728,-2.0712,-2.0712,-2.0713,0,0,0,0,0,0,0,0,0,0,0,0,0,-2.0786,-2.0787,-2.0795,-2.0795,-2.0795,-2.0779,-2.0779,-2.0779,-2.0731,-2.073,-2.0729,-2.0728,-2.0711,-2.0712,-2.0713,0,0,0,0,0,0,0,0,0,0,0,0,0,-2.0782,-2.0787,-2.0795,-2.0769,-2.0767,-2.0779,-2.0779,-2.0779,-2.0732,-2.073,-2.0729,-2.0727,-2.0711,-2.0712,-2.0713,-2.0749,0,0,-2.0715,-2.0715,0,0,0,0,0,0,0,0,-2.0783,-2.0783,-2.0773,-2.0771,-2.0768,-2.0756,-2.077,-2.0769,-2.0732,-2.0745,-2.0728,-2.0726,-2.0727,-2.0727,-2.0727,-2.0748,-2.0747,-2.0715,-2.0716,-2.0716,-2.0716,0,0,0,0,0,0,0,-2.0783,-2.0783,-2.0789,-2.0773,-2.077,-2.0759,-2.0757,-2.0769,-2.0745,-2.0744,-2.074,-2.0739,-2.0726,-2.0727,-2.0726,-2.0747,-2.0715,-2.0716,-2.0716,-2.0717,-2.0799,-2.0801,0,0,0,0,0,0,-2.0787,-2.0784,-2.0789,-2.0788,-2.0772,-2.076,-2.0758,-2.0761,-2.0745,-2.0741,-2.074,-2.0737,-2.0726,-2.0726,-2.0726,-2.0768,-2.0716,-2.0717,-2.0717,-2.0797,-2.0799,-2.0801,0,0,0,0,0,0,-2.0787,-2.0788,-2.079,-2.0785,-2.0785,-2.0762,-2.0767,-2.0762,-2.0763,-2.0742,-2.0738,-2.0746,-2.0725,-2.0725,-2.0744,-2.0767,-2.0717,-2.0718,-2.0795,-2.0798,-2.08,-2.0852,0,0,0,0,0,0,-2.0787,-2.0788,-2.0801,-2.0786,-2.0785,-2.0808,-2.0768,-2.0763,-2.0764,-2.0759,-2.0746,-2.0742,-2.0723,-2.0743,-2.0745,-2.0767,-2.0718,-2.0793,-2.0796,-2.0799,-2.0849,-2.0857,-2.0863,0,0,0,0,0,-2.0787,-2.0816,-2.0802,-2.0803,-2.0801,-2.081,-2.0809,-2.0787,-2.0766,-2.0779,-2.0767,-2.0743,-2.0764,-2.0745,-2.0747,-2.077,-2.0792,-2.0795,-2.0799,-2.0845,-2.0855,-2.0863,0,0,0,0,0,0,-2.0834,-2.0814,-2.0798,-2.0823,-2.0819,-2.0802,-2.0818,-2.0798,-2.0799,-2.0795,-2.0767,-2.0764,-2.0788,-2.0781,-2.076,-2.0805,-2.0774,-2.0778,-2.0809,-2.0818,-2.0825,-2.0826,-2.0719,0,0,0,0,0,-2.0848,-2.0857,-2.0838,-2.0862,-2.0861,-2.084,-2.0843,-2.0826,-2.0821,-2.0818,-2.0807,-2.0802,-2.0808,-2.0813,-2.0817,-2.0848,-2.0845,-2.0864,-2.0872,-2.0878,-2.0882,-2.0899,-2.0908,-2.0814,-2.0814,-2.0814,0,0,-2.0876,-2.0866,-2.0872,-2.0872,-2.0866,-2.0876,-2.0839,-2.085,-2.0858,-2.082,-2.0838,-2.083,-2.0823,-2.0849,-2.0859,-2.0843,-2.0907,-2.0883,-2.0888,-2.0888,-2.0904,-2.0913,-2.0921,-2.0816,-2.0816,-2.0816,0,0,-2.0932,-2.0925,-2.0945,-2.094,-2.0933,-2.0919,-2.0924,-2.0911,-2.0904,-2.0921,-2.0894,-2.0903,-2.0913,-2.0909,-2.0909,-2.0966,-2.0945,-2.0969,-2.1007,-2.1024,-2.1031,-2.1038,-2.1059,-2.1067,-2.0973,-2.0973,-2.0973,0,-2.0967,-2.0981,-2.0957,-2.0972,-2.0973,-2.094,-2.096,-2.0957,-2.0952,-2.0953,-2.0936,-2.0949,-2.0942,-2.0967,-2.0981,-2.0982,-2.0987,-2.097,-2.1032,-2.1038,-2.1044,-2.1064,-2.1072,-2.0976,-2.0976,-2.0975,-2.0975,0,-2.1026,-2.1036,-2.1053,-2.1049,-2.1052,-2.1069,-2.1049,-2.1055,-2.1039,-2.1027,-2.1046,-2.1037,-2.104,-2.1044,-2.1028,-2.1068,-2.1058,-2.1037,-2.1005,-2.1056,-2.1075,-2.1082,-2.098,-2.0979,-2.0978,-2.0977,0,0,-2.111,-2.1094,-2.1101,-2.1099,-2.1089,-2.1097,-2.1114,-2.1116,-2.1122,-2.112,-2.1134,-2.1144,-2.1125,-2.1125,-2.1108,-2.1124,-2.1171,-2.11,-2.11,-2.1114,-2.1215,-2.1231,-2.1241,-2.1157,-2.1158,-2.1159,-2.1216,0,-2.1164,-2.119,-2.1171,-2.1201,-2.1211,-2.1181,-2.1195,-2.1192,-2.1182,-2.1189,-2.1178,-2.1186,-2.116,-2.116,-2.1173,-2.1162,-2.1191,-2.1158,-2.117,-2.117,-2.1172,-2.125,-2.1267,-2.1321,-2.1223,-2.1224,-2.1225,0,-2.1229,-2.1231,-2.1262,-2.1252,-2.1255,-2.1269,-2.1271,-2.1278,-2.1273,-2.1265,-2.1266,-2.1246,-2.1263,-2.1232,-2.1255,-2.1233,-2.1237,-2.1233,-2.1234,-2.1234,-2.1201,-2.1253,-2.1337,-2.1346,-2.1236,-2.1235,-2.1234,0,-2.1288,-2.1298,-2.1319,-2.1318,-2.1307,-2.1317,-2.1313,-2.1307,-2.131,-2.1312,-2.1314,-2.1318,-2.132,-2.1324,-2.1306,-2.1285,-2.1331,-2.1299,-2.1325,-2.1326,-2.1336,-2.1336,-2.1423,-2.1339,-2.1338,-2.1338,-2.1338,0,-2.135,-2.1371,-2.1346,-2.1358,-2.1381,-2.1359,-2.1382,-2.1375,-2.137,-2.1381,-2.1356,-2.1367,-2.1342,-2.1352,-2.1338,-2.136,-2.136,-2.1355,-2.1351,-2.1357,-2.1358,-2.1359,-2.1355,-2.134,-2.134,-2.134,-2.1339,0,-2.142,-2.1404,-2.1424,-2.1412,-2.1409,-2.1427,-2.1417,-2.1429,-2.1418,-2.1432,-2.1435,-2.1417,-2.1427,-2.141,-2.1417,-2.1408,-2.1438,-2.1428,-2.144,-2.1437,-2.1465,-2.1463,-2.1556,-2.1568,-2.1476,-2.1477,-2.1477,0,-2.1461,-2.1476,-2.1466,-2.1472,-2.1469,-2.1479,-2.1482,-2.1461,-2.1466,-2.1463,-2.1476,-2.1483,-2.1488,-2.1505,-2.1494,-2.15,-2.149,-2.1522,-2.149,-2.1497,-2.1491,-2.1491,-2.1493,-2.1529,-2.153,-2.1531,-2.1531,0,-2.1535,-2.1526,-2.1533,-2.1537,-2.1542,-2.1544,-2.1544,-2.1551,-2.1528,-2.1536,-2.1545,-2.1549,-2.1557,-2.1566,-2.1569,-2.1565,-2.1545,-2.1542,-2.1548,-2.1555,-2.1561,-2.1559,-2.1458,-2.154,-2.1539,-2.1538,-2.1538,-2.1537,-2.1592,-2.1605,-2.16,-2.1608,-2.1606,-2.1607,-2.1618,-2.1609,-2.1617,-2.1622,-2.1609,-2.1622,-2.1619,-2.1621,-2.162,-2.163,-2.1616,-2.1625,-2.1628,-2.163,-2.1635,-2.156,-2.1631,-2.163,-2.163,-2.163,-2.163,0,-2.1665,-2.1661,-2.1669,-2.167,-2.1677,-2.1658,-2.1658,-2.1665,-2.1677,-2.1676,-2.1681,-2.1693,-2.1702,-2.1691,-2.1698,-2.1709,-2.17,-2.1711,-2.171,-2.171,-2.1647,-2.1641,-2.1718,-2.1718,-2.1718,-2.1718,-2.1718,-2.1718,-2.1704,-2.1726,-2.1717,-2.1737,-2.1733,-2.1746,-2.1747,-2.1749,-2.1748,-2.1762,-2.1769,-2.1763,-2.1758,-2.1764,-2.1772,-2.1768,-2.1772,-2.1787,-2.1781,-2.1723,-2.1714,-2.1706,-2.17,-2.1788,-2.1788,-2.1843,-2.1843,-2.1844]},{"header":{"parameterUnit":"m.s-1","parameterCategory":1,"la1":30.2991,"la2":30.254,"lo1":-89.0895,"lo2":-89.0444,"dy":0.0017,"dx":0.0017,"nx":28,"ny":28,"refTime":"2025-06-01T21:00:00:Z","depth":0,"parameterNumber":3,"parameterNumberName":"V-component_of_WINDS"},"data":[0,0,0,0,0,0,0,0,0,0,0,0,0,0,0,0,0,0,0,0,0,0,0,0,0,0,0,0,0,0,0,0,0,0,0,0,0,0,0,0,0,0,0,0,0,0,0,0,0,0,0,0,0,0,0,0,0,0,4.4744,4.4744,0,4.4747,4.4747,4.4747,4.4762,4.4763,4.4763,4.4764,4.4763,4.4763,4.4762,0,0,0,0,0,0,0,0,0,0,0,0,0,4.4748,4.4747,4.4744,4.4744,4.4744,4.4747,4.4747,4.4747,4.4762,4.4763,4.4763,4.4764,4.4763,4.4763,4.4762,0,0,0,0,0,0,0,0,0,0,0,0,0,4.4748,4.4747,4.4744,4.4752,4.4753,4.4747,4.4747,4.4747,4.4762,4.4763,4.4763,4.4764,4.4763,4.4763,4.4762,4.4748,0,0,4.4761,4.476,0,0,0,0,0,0,0,0,4.4748,4.4748,4.4751,4.4751,4.4752,4.4755,4.4748,4.4747,4.4762,4.4758,4.4764,4.4764,4.476,4.476,4.4759,4.4748,4.4748,4.4761,4.476,4.476,4.476,0,0,0,0,0,0,0,4.4748,4.4748,4.4745,4.4751,4.4752,4.4754,4.4755,4.4748,4.4756,4.4759,4.476,4.476,4.476,4.4759,4.4759,4.4748,4.4761,4.476,4.476,4.476,4.4726,4.4725,0,0,0,0,0,0,4.4747,4.4747,4.4745,4.4745,4.4751,4.4754,4.4755,4.4753,4.4756,4.4757,4.476,4.4761,4.476,4.4759,4.4759,4.4742,4.476,4.476,4.4759,4.4726,4.4726,4.4725,0,0,0,0,0,0,4.4747,4.4747,4.4745,4.4747,4.4747,4.4753,4.4752,4.4753,4.4752,4.4757,4.4758,4.4758,4.476,4.476,4.4751,4.4743,4.4759,4.4759,4.4727,4.4726,4.4725,4.4709,0,0,0,0,0,0,4.4747,4.4747,4.4742,4.4746,4.4746,4.4737,4.4751,4.4753,4.4752,4.4753,4.4755,4.4756,4.4761,4.4752,4.475,4.4742,4.4758,4.4728,4.4727,4.4726,4.471,4.4708,4.4706,0,0,0,0,0,4.4747,4.4736,4.4741,4.4741,4.4741,4.4737,4.4737,4.4744,4.4751,4.4746,4.4749,4.4756,4.4744,4.4751,4.4749,4.4741,4.4728,4.4727,4.4726,4.4711,4.4708,4.4706,0,0,0,0,0,0,4.4728,4.4737,4.4743,4.4733,4.4734,4.4739,4.4733,4.474,4.4738,4.4739,4.4747,4.4747,4.4737,4.4738,4.4746,4.4727,4.4737,4.4736,4.4727,4.4724,4.4722,4.4721,4.4758,0,0,0,0,0,4.4723,4.472,4.4727,4.4718,4.4719,4.4726,4.4724,4.473,4.4731,4.4731,4.4733,4.4733,4.473,4.4727,4.4724,4.4711,4.4711,4.4705,4.4702,4.47,4.4698,4.4692,4.4689,4.4721,4.4721,4.4721,0,0,4.4712,4.4716,4.4714,4.4714,4.4716,4.4712,4.4726,4.4721,4.4718,4.473,4.4722,4.4724,4.4724,4.4714,4.4709,4.4714,4.469,4.4699,4.4697,4.4696,4.469,4.4687,4.4685,4.472,4.472,4.472,0,0,4.469,4.4693,4.4686,4.4688,4.4691,4.4696,4.4694,4.4699,4.4701,4.4694,4.4703,4.4699,4.4693,4.4693,4.4692,4.4672,4.4678,4.4671,4.4658,4.4651,4.4649,4.4647,4.4639,4.4637,4.4669,4.4669,4.4669,0,4.4675,4.4671,4.4681,4.4676,4.4676,4.4689,4.4681,4.4682,4.4683,4.4682,4.4689,4.4682,4.4683,4.4673,4.4668,4.4667,4.4665,4.467,4.4649,4.4647,4.4645,4.4638,4.4635,4.4668,4.4668,4.4668,4.4668,0,4.4653,4.465,4.4643,4.4646,4.4646,4.4639,4.4648,4.4646,4.4652,4.4656,4.4649,4.4651,4.4649,4.4647,4.4652,4.4637,4.4641,4.4648,4.4658,4.4641,4.4634,4.4632,4.4667,4.4667,4.4667,4.4668,0,0,4.4617,4.4627,4.4625,4.4627,4.4632,4.4629,4.4623,4.4623,4.4621,4.4622,4.4617,4.4612,4.4619,4.4618,4.4624,4.4618,4.4603,4.4626,4.4626,4.4622,4.4587,4.4581,4.4578,4.4607,4.4607,4.4606,4.4587,0,4.4596,4.4588,4.4598,4.4587,4.4585,4.4597,4.4593,4.4595,4.4599,4.4597,4.4601,4.4597,4.4607,4.4607,4.4602,4.4605,4.4596,4.4607,4.4602,4.4602,4.4601,4.4575,4.4568,4.455,4.4584,4.4584,4.4584,0,4.457,4.4572,4.4561,4.4569,4.4568,4.4563,4.4564,4.4562,4.4565,4.4568,4.4568,4.4576,4.457,4.4581,4.4573,4.4581,4.4579,4.4581,4.458,4.4579,4.4591,4.4573,4.4544,4.4541,4.458,4.458,4.458,0,4.4545,4.4544,4.4539,4.454,4.4548,4.4544,4.4547,4.4551,4.4551,4.4551,4.4551,4.455,4.4549,4.4548,4.4555,4.4562,4.4546,4.4558,4.4548,4.4548,4.4543,4.4544,4.4514,4.4544,4.4544,4.4544,4.4544,0,4.452,4.4513,4.4528,4.4524,4.4517,4.4528,4.452,4.4524,4.4528,4.4524,4.4535,4.4532,4.4541,4.4538,4.4544,4.4536,4.4536,4.4538,4.4539,4.4537,4.4537,4.4535,4.4537,4.4543,4.4543,4.4543,4.4543,0,4.449,4.45,4.4494,4.4503,4.4505,4.45,4.4507,4.4503,4.4509,4.4505,4.4504,4.4513,4.451,4.4518,4.4516,4.4519,4.4509,4.4512,4.4508,4.4509,4.45,4.45,4.4467,4.4464,4.4496,4.4496,4.4496,0,4.4474,4.4469,4.4478,4.4477,4.448,4.4479,4.4479,4.449,4.4489,4.4493,4.4489,4.4488,4.4488,4.4483,4.4488,4.4487,4.4491,4.4479,4.449,4.4488,4.449,4.449,4.449,4.4477,4.4476,4.4476,4.4476,0,4.4443,4.4448,4.4449,4.4451,4.4451,4.4453,4.4456,4.4454,4.4466,4.4465,4.4464,4.4463,4.4463,4.4461,4.4462,4.4464,4.4471,4.4473,4.447,4.4467,4.4465,4.4466,4.4502,4.4473,4.4473,4.4473,4.4474,4.4474,4.4419,4.4416,4.4422,4.4422,4.4426,4.4428,4.4426,4.4432,4.4432,4.4433,4.4439,4.4437,4.444,4.4442,4.4443,4.4441,4.4446,4.4443,4.4442,4.4441,4.4439,4.4466,4.4441,4.4441,4.4441,4.4441,4.4442,0,4.4388,4.4394,4.4394,4.4398,4.4399,4.4408,4.4411,4.4411,4.4409,4.4412,4.4412,4.4411,4.441,4.4416,4.4416,4.4413,4.4416,4.4412,4.4412,4.4413,4.4435,4.4437,4.441,4.441,4.441,4.441,4.441,4.441,4.4373,4.4368,4.4374,4.4372,4.4377,4.4375,4.4377,4.4379,4.4382,4.4381,4.4381,4.4385,4.4389,4.439,4.4389,4.4391,4.439,4.4385,4.4388,4.4408,4.4411,4.4414,4.4416,4.4385,4.4385,4.4366,4.4366,4.4366]}]]